Location: Abrera
(41.5168°N, 1.9010°E)
Time: 07:43:38
(UTC+00:00)

Daily predictions for brighter satellites

Satellite Brightness Start Highest point End
(mag) Time Altitude Azimuth Time Altitude Azimuth Time Altitude Azimuth
USA 267 3.7 16:41:48 10° NE 16:48:12 58° NW 16:54:34 10° WSW
SMAP 3.4 16:47:38 10° SE 16:52:01 44° ENE 16:56:27 10° N
Cosmos 1408 Rocket 3.6 16:49:07 10° N 16:53:26 59° E 16:57:45 10° SSE
SL-08 R/B 3.9 16:52:27 10° N 16:57:06 60° WNW 17:01:40 10° SSW
Cosmos 1743 Rocket 4.1 16:55:26 10° N 16:59:27 36° ENE 17:03:25 10° SE
USA 229 DEB 4.3 16:53:04 10° NNW 16:59:59 42° NE 17:07:15 10° ESE
USA 229 4.3 16:53:10 10° NNW 17:00:03 42° NE 17:07:20 10° ESE
Cosmos 1464 Rocket 4.2 16:55:09 10° S 17:01:31 85° W 17:07:57 10° N
Cosmos 44 3.2 16:57:43 10° NNW 17:02:26 57° NE 17:06:50 10° SE
CZ-2C R/B 3.7 16:58:36 10° NE 17:02:36 22° E 17:06:33 10° SE
Cosmos 990 Rocket 4.3 16:59:02 10° N 17:04:00 44° ENE 17:08:55 10° SE
CZ-4C R/B 4.0 17:00:05 10° NNW 17:05:19 22° NNE 17:11:12 10° E
ERBS 4.4 17:04:06 10° WNW 17:06:22 18° NNW 17:08:39 10° NNE
FengYun 1-2 T 4.2 17:03:02 10° SSE 17:08:39 82° ENE 17:14:14 10° NNW
Cosmos 1939 Rocket 2.9 17:07:21 10° SSE 17:11:28 77° ENE 17:15:35 10° N
MOS 1-B Rocket 4.4 17:10:58 10° NNE 17:16:35 44° E 17:22:52 10° S
Nadezhda 4 Rocket 4.0 17:10:26 10° N 17:16:46 84° E 17:23:07 10° S
CZ-2C R/B 3.8 17:14:44 10° S 17:19:39 55° W 17:24:24 10° NNW
USA 234 3.3 17:13:44 10° SE 17:20:17 85° NE 17:26:51 10° NW
SJ 16-02 3.2 17:16:41 10° NW 17:20:42 35° WSW 17:24:41 10° SSW
SKYMED 2 4.5 17:17:55 10° NE 17:21:42 29° E 17:25:28 10° SSE
ATLAS CENTAUR R/B 3.3 17:11:32 10° SW 17:23:35 89° ESE 17:27:51 13° NE
NOSS 3-1 (A) 4.2 17:16:12 10° NNW 17:23:43 61° NE 17:32:24 10° SE
NOSS 3-1 (C) 4.2 17:17:59 10° NW 17:25:41 90° SW 17:34:37 10° SSE
ATLAS CENTAUR R/B 4.1 17:27:07 10° NW 17:28:12 11° NNW 17:29:19 10° NNW
Meteor 1-25 Rocket 4.2 17:23:36 10° N 17:29:09 65° ENE 17:34:42 10° SSE
Cosmos 1500 Rocket 3.5 17:24:41 10° N 17:29:10 84° E 17:33:34 10° S
Cosmos 1092 Rocket 4.0 17:23:03 10° N 17:29:22 62° E 17:35:37 10° SSE
COSMOS 2455 3.3 17:24:55 10° S 17:30:28 40° ESE 17:35:04 15° NE
Cosmos 1656 3.8 17:27:59 10° NNW 17:33:33 80° WSW 17:39:09 10° SSE
Cosmos 2369 4.3 17:28:29 10° N 17:33:44 35° ENE 17:38:56 10° ESE
AQUARIUS 4.3 17:29:52 10° S 17:34:21 79° WSW 17:38:52 10° NNW
Cosmos 1697 Rocket 2.8 17:30:46 10° NNW 17:36:16 54° ENE 17:41:45 10° SE
Cosmos 1428 Rocket 4.4 17:31:52 10° N 17:37:56 62° E 17:44:02 10° SSE
Cosmos 1980 Rocket 2.9 17:34:03 10° N 17:39:03 31° NE 17:43:29 12° ESE
Cosmos 1805 Rocket 3.5 17:36:04 10° N 17:40:23 63° E 17:44:40 10° SSE
Cosmos 1812 3.4 17:39:26 10° SSE 17:42:50 31° E 17:43:54 26° ENE
SL-16 R/B 4.2 17:43:44 10° NNE 17:44:20 11° NNE 17:44:20 11° NNE
Landsat 5 4.0 17:43:54 21° NE 17:46:01 36° E 17:49:44 10° SSE
Sich 1 3.0 17:42:00 10° N 17:46:13 56° E 17:50:26 10° SSE
ISS -1.9 17:44:48 10° NNW 17:47:13 18° NNE 17:47:25 18° NNE
Cosmos 1782 2.7 17:43:26 10° S 17:47:23 66° E 17:51:20 10° NNE
Cosmos 2082 Rocket 2.5 17:42:37 10° S 17:48:02 46° ESE 17:51:42 20° NE
Cosmos 540 Rocket 3.3 17:43:04 10° SSW 17:48:09 75° ESE 17:52:54 12° NNE
Cosmos 1627 Rocket 4.4 17:42:23 10° N 17:48:35 75° E 17:54:41 10° SSE
Cosmos 468 Rocket 4.4 17:43:47 10° SSW 17:48:53 65° WNW 17:54:03 10° NNE
CZ-4B DEB 4.5 17:43:24 10° S 17:48:55 72° WSW 17:54:25 10° NNW
Cosmos 1898 Rocket 3.4 17:44:08 10° NNW 17:49:25 81° ENE 17:54:37 10° SSE
GPS 2-04 Rocket1 3.9 17:50:05 10° WSW 17:53:50 34° S 17:55:45 22° SE
H-2A R/B 2.0 17:50:20 10° SSE 17:55:36 88° W 18:00:43 10° NNW
USA 276 2.1 17:52:34 10° NW 17:55:39 59° NNE 17:56:00 54° ENE
Cosmos 2279 Rocket 4.1 17:51:06 10° SSE 17:57:06 54° E 18:03:07 10° NNE
Cosmos 1602 3.8 17:53:57 10° N 17:57:48 78° W 18:01:39 10° S
Cosmos 2278 4.4 17:53:53 10° N 17:58:58 32° ENE 18:00:06 29° ENE
COSMOS 2406 3.2 17:53:48 10° SSW 17:59:33 84° WNW 18:04:43 13° NNE
deb Chang Zheng 4 3.4 17:56:26 10° SSE 18:00:42 73° ENE 18:05:00 10° N
MOS 1-B 4.5 17:55:58 10° SSE 18:01:44 79° WSW 18:07:33 10° NNW
Meteor 2-16 Rocket 4.4 18:02:31 10° N 18:08:34 59° E 18:14:35 10° SSE
Lacrosse 5 rocket 3.6 18:07:55 10° N 18:08:35 11° N 18:08:35 11° N
SL-24 R/B - RUBIN 2 4.1 18:05:33 10° NNW 18:09:23 37° NE 18:09:23 37° NE
COSMO-SKYMED 1 2.6 18:05:48 12° N 18:09:54 83° WNW 18:14:14 10° SSW
Cosmos 1634 Rocket 4.2 18:03:40 10° SSW 18:09:58 77° W 18:16:20 10° N
Cosmos 2084 3.7 18:10:38 10° NW 18:14:58 71° WSW 18:19:14 11° SSE
Cosmos 1833 Rocket 3.5 18:11:17 10° SW 18:16:40 48° WNW 18:21:50 11° NNE
CZ-4C R/B 4.2 18:19:38 30° S 18:19:38 30° S 18:21:28 10° S
ARGOS 3.1 18:14:01 10° SSE 18:19:27 90° ENE 18:24:53 10° NNW
Okean O Rocket 1.6 18:17:33 10° S 18:22:00 80° WSW 18:26:29 10° NNW
Feng Yun 1-1 Rocket 4.3 18:17:43 10° SSE 18:23:34 66° ENE 18:29:25 10° N
Cosmos 2026 Rocket 4.4 18:17:35 10° NNW 18:23:38 61° W 18:29:34 10° S
Cosmos 1655 Rocket 4.2 18:19:30 10° N 18:25:39 46° ENE 18:31:42 10° SSE
Cosmos 1633 Rocket 3.6 18:21:28 10° N 18:28:43 21° SSE 18:30:11 10° SSE
CZ-4B R/B 3.6 18:20:35 10° S 18:26:00 64° WSW 18:31:21 10° NNW
NOSS 2-2 (C) 4.4 18:24:13 10° NNW 18:29:37 68° NE 18:33:10 31° SE
Cosmos 841 Rocket 3.9 18:25:33 10° SSW 18:30:39 59° WNW 18:33:57 22° N
Cosmos 1937 Rocket 4.2 18:28:47 10° NNW 18:33:59 56° WSW 18:39:09 10° S
SL-08 RB Rocket 3.7 18:32:05 10° SSE 18:36:44 84° WSW 18:41:24 10° NNW
Cosmos 2180 Rocket 4.4 18:32:33 10° S 18:38:57 87° E 18:45:17 10° N
CZ-2C R/B 3.6 18:38:09 10° N 18:43:05 44° WNW 18:47:58 10° SW
Cosmos 1151 Rocket 3.9 18:42:28 10° SSW 18:46:38 49° W 18:48:06 34° NNW
Cosmos 1666 Rocket 4.3 18:44:30 10° NNW 18:48:50 53° W 18:53:06 10° S
NOAA 15 4.5 18:43:54 10° SSE 18:49:12 89° W 18:54:32 10° NNW
GEOS 3 Rocket 3.5 18:50:18 80° SE 18:50:37 90° ENE 18:55:52 10° NW
Meteor 2-15 4.3 18:45:38 10° S 18:51:45 88° E 18:54:03 41° N
DMSP B5D2-2 3.9 18:52:16 85° S 18:52:16 85° S 18:57:20 10° SSW
Cosmos 372 Rocket 4.5 18:49:22 10° NNW 18:54:30 58° WSW 18:59:38 10° S
Cosmos 1328 Rocket 4.1 18:50:25 10° SSW 18:54:29 57° W 18:54:29 57° W
CZ-4C R/B 2.9 18:47:47 10° NNW 18:55:08 69° NE 18:56:41 57° ESE
Cosmos 2322 Rocket 4.5 19:10:00 10° N 19:10:31 12° N 19:10:31 12° N
COSMOS 2455 4.1 19:10:57 10° WSW 19:16:26 36° NW 19:18:15 30° NNW
Cosmos 1980 Rocket 3.3 19:17:52 10° NW 19:23:08 40° WSW 19:25:27 27° SSW
SL-16 R/B 4.4 19:25:15 10° NNW 19:26:13 15° NNW 19:26:13 15° NNW
Cosmos 2082 Rocket 3.9 19:27:31 10° WSW 19:32:18 27° NW 19:33:35 25° NNW
